Theta_e
348 349 348 346 342 342 341 341 339 336 336 329 327 328 328 328 327 326 324 323 323 323 324 325 325 325 329 333 334 336 335 333 331 333 335 336 336 336 336 336 335 336 337 337 339 339 339 340 340 341 341 340 339 339 340 340 340 340 340 340 340 340 340 340 340 339 340 339 339 339 339 338 338 337 338 338 339 338 337 337 336 336 335 335 335
347 348 349 347 344 342 341 341 338 336 336 330 327 328 329 328 325 322 321 322 322 323 324 325 325 327 332 336 336 335 333 329 328 332 336 336 336 336 335 335 335 335 336 337 338 339 339 340 340 340 341 340 340 339 339 339 339 339 339 339 340 340 340 340 339 338 338 339 339 338 339 339 339 338 338 338 338 337 336 336 336 336 336 335 335
345 349 348 346 346 343 341 341 338 337 336 330 326 329 329 327 323 321 322 323 323 323 324 324 325 326 331 333 333 333 332 329 330 335 336 336 336 336 335 335 336 336 336 337 337 338 339 340 339 340 340 339 339 339 338 338 339 339 339 339 339 339 339 339 339 339 338 338 338 337 338 338 338 338 337 336 336 336 336 335 335 335 335 334 334
345 349 346 347 346 344 342 341 339 337 336 330 326 329 329 327 325 325 325 324 325 325 325 325 325 326 327 329 330 333 332 332 335 337 336 335 336 335 335 335 335 335 335 336 337 338 338 339 339 339 340 339 339 339 338 338 338 338 338 338 338 338 337 338 338 338 337 337 336 336 336 336 337 336 335 335 334 334 335 334 334 334 333 333 331
347 349 346 346 345 344 343 341 339 337 337 329 326 330 329 327 326 327 327 328 330 327 327 326 327 328 327 328 331 335 334 333 336 337 337 337 336 336 336 335 335 335 335 336 337 337 338 338 338 338 338 339 339 338 338 338 338 337 337 337 336 336 336 336 336 335 334 333 333 334 334 334 333 332 332 333 333 333 332 332 332 331 331 331 328
347 348 346 346 345 344 342 342 339 337 337 330 326 330 330 328 327 328 326 330 334 331 331 329 328 329 328 328 332 338 334 332 336 337 337 337 337 337 337 335 334 334 335 335 336 337 337 337 337 337 337 338 337 336 336 336 336 335 336 336 336 336 335 335 335 334 333 332 331 330 330 330 331 331 331 330 331 331 331 330 330 330 328 328 327
346 347 347 346 345 343 342 342 339 337 337 330 327 331 332 331 329 329 329 332 334 334 335 333 331 331 329 330 335 339 333 332 337 337 336 337 337 337 337 336 334 334 336 336 336 336 337 337 337 337 337 337 336 335 335 333 332 331 332 334 336 336 335 334 334 334 333 332 330 328 326 327 330 331 331 329 330 331 330 329 330 329 328 329 329
346 347 347 346 345 342 342 342 339 337 336 331 327 332 335 333 330 329 330 334 335 335 338 336 334 333 331 332 337 337 332 334 336 336 336 337 337 337 338 337 336 333 333 335 336 336 336 336 337 337 336 335 334 333 331 330 330 331 332 332 334 335 335 333 333 333 332 331 330 329 328 328 329 329 330 330 330 330 329 329 329 329 330 330 330
347 347 347 347 345 343 343 342 340 338 336 332 329 334 337 334 333 331 331 334 336 336 338 339 335 333 333 334 337 337 332 333 335 336 337 337 337 337 337 336 335 330 324 329 334 335 335 336 336 335 334 332 331 330 329 330 331 332 332 332 334 335 334 333 332 331 331 330 329 330 331 330 330 329 329 328 328 328 329 328 327 328 330 331 331
347 347 347 346 346 345 343 342 342 339 336 334 334 337 338 335 335 333 332 335 336 336 337 339 336 332 334 336 337 336 332 333 336 337 337 336 336 335 335 335 334 329 320 322 329 332 333 333 333 332 331 330 329 328 330 331 332 332 332 332 334 335 334 333 331 329 330 330 329 330 328 327 328 329 329 329 329 328 329 330 328 328 330 331 329
346 346 347 346 346 345 343 342 342 342 339 336 337 338 339 337 335 335 335 336 336 337 337 338 336 333 335 337 337 337 333 333 336 336 337 336 336 335 336 336 334 330 321 318 325 329 331 331 331 330 329 328 328 329 331 332 331 331 332 332 334 334 334 332 329 328 330 329 329 327 325 326 329 330 330 330 329 329 328 329 330 330 331 330 327
346 346 346 346 346 345 343 342 341 342 340 339 339 339 340 338 336 337 337 336 337 338 337 337 336 333 335 338 337 337 334 332 334 335 337 336 336 337 337 335 333 331 322 315 321 328 330 330 330 329 328 328 329 330 331 332 331 331 332 333 333 333 333 330 328 329 329 328 326 325 326 329 330 330 330 330 330 330 329 329 330 331 331 330 329
346 346 346 346 346 346 343 341 341 342 341 339 339 339 339 338 336 337 337 335 337 338 337 337 336 333 333 337 337 336 334 333 335 336 336 337 337 338 337 335 332 331 324 316 318 326 329 329 329 328 328 328 331 332 332 331 331 331 331 331 332 332 330 328 328 328 327 326 327 327 329 329 329 329 329 329 329 330 330 330 330 330 330 330 329
346 345 346 346 346 345 343 341 341 341 341 339 338 339 339 338 335 335 335 332 334 336 337 337 336 334 332 336 337 335 334 335 337 337 337 338 338 338 336 334 332 330 327 319 316 324 329 328 328 327 329 331 332 333 332 331 330 330 330 330 329 328 327 327 326 326 326 327 329 330 330 329 329 330 329 329 329 329 329 329 329 329 328 328 328
345 345 345 346 346 345 343 343 341 341 339 338 337 338 339 338 334 333 333 331 332 334 335 336 335 335 332 334 335 335 336 337 338 338 338 338 338 337 334 333 331 330 328 321 316 321 328 327 327 328 330 332 333 334 332 331 330 330 330 329 327 326 325 325 325 326 327 328 329 328 328 329 329 328 328 328 328 328 328 327 328 327 327 327 327
344 345 346 345 345 345 344 344 342 340 339 337 336 337 337 335 333 333 332 331 332 333 333 334 335 335 333 333 334 335 337 338 338 339 339 338 337 336 333 332 331 330 328 322 317 321 326 326 328 330 331 332 333 333 332 331 330 330 329 328 325 323 322 323 325 327 327 326 326 326 327 328 328 328 328 328 328 328 328 327 327 327 327 326 326
344 344 345 344 345 345 345 344 342 341 339 338 337 336 334 333 334 333 332 331 332 333 332 333 334 335 334 333 334 337 338 338 338 339 340 338 337 335 332 332 330 329 327 322 318 321 325 327 330 331 331 332 333 332 333 331 330 329 329 328 326 323 322 322 326 327 327 326 326 326 327 328 328 328 329 328 328 328 327 327 327 327 326 325 325
344 343 344 344 344 345 345 345 343 341 341 339 340 338 335 334 335 333 331 331 333 333 332 332 332 333 333 333 336 338 338 339 338 339 339 337 336 334 333 331 330 330 327 322 321 323 327 329 331 330 331 333 332 331 332 331 330 329 329 329 326 324 323 323 326 326 326 326 327 327 327 328 328 328 328 328 327 327 326 326 326 325 325 325 324
344 343 344 344 344 345 345 345 343 341 341 341 342 340 336 336 336 333 330 331 334 335 334 333 332 332 333 334 336 337 337 339 339 339 339 336 335 334 333 331 330 330 327 323 324 327 329 331 331 330 331 333 332 331 330 330 330 330 329 328 325 324 324 324 325 326 327 327 327 327 327 328 328 327 327 327 327 326 325 325 325 325 324 324 323
344 344 344 344 344 345 345 345 343 341 342 342 343 340 337 337 337 334 329 331 335 337 336 335 334 334 334 335 336 336 336 338 339 339 338 336 335 334 333 331 330 330 327 324 326 330 330 331 330 330 332 332 332 331 330 330 330 330 328 325 322 322 323 324 325 326 327 326 326 326 327 328 328 327 327 326 326 326 326 325 325 325 324 324 324
344 343 344 344 344 345 345 344 343 342 342 342 342 340 337 337 338 336 331 333 336 337 337 336 336 336 336 336 337 337 336 336 337 339 338 336 334 334 333 332 330 330 329 324 327 331 330 330 330 330 331 331 332 332 331 330 329 329 325 321 318 319 322 322 324 326 326 326 327 326 327 327 327 327 326 326 326 325 325 325 325 324 324 324 324
344 343 343 344 344 344 344 344 343 343 342 341 340 338 337 337 340 338 334 335 337 337 337 337 337 337 337 336 337 338 337 336 335 337 338 335 333 333 332 332 330 330 330 325 324 330 331 330 330 330 331 332 333 333 332 330 329 327 323 319 318 319 321 322 324 326 326 326 327 327 327 326 326 327 326 326 325 324 324 324 324 324 324 324 323
343 342 342 343 344 343 343 343 343 343 341 341 340 338 338 338 341 339 335 335 337 337 337 338 337 338 338 337 337 337 337 336 334 336 336 335 334 333 332 332 331 330 330 327 322 325 330 328 328 330 331 333 334 334 333 330 328 326 322 320 319 319 321 322 323 324 324 326 327 326 325 326 326 326 325 325 325 324 324 325 324 324 323 323 323
341 341 341 342 342 342 343 342 342 342 342 341 340 340 340 340 341 339 336 335 337 338 338 338 337 337 338 337 337 336 337 336 335 335 336 336 335 333 332 332 332 330 330 329 323 322 326 327 328 330 331 333 334 333 333 330 328 327 324 322 319 318 320 321 320 319 320 323 325 325 325 326 326 326 325 325 325 324 324 324 324 323 323 322 322
341 341 342 341 342 342 342 342 342 342 341 341 341 341 341 341 340 338 336 335 337 338 338 338 338 337 337 337 337 335 335 335 335 336 335 335 335 333 332 332 332 331 330 329 326 323 324 327 329 331 332 334 334 333 332 331 328 327 327 324 321 321 322 322 321 320 318 320 323 326 327 326 325 325 325 325 325 324 322 322 322 322 321 321 321
341 341 341 341 341 341 341 341 341 342 341 340 340 341 340 340 339 338 336 336 337 338 339 338 338 338 337 336 335 334 333 333 334 333 333 333 334 333 332 332 332 332 331 329 327 326 326 328 330 331 333 334 334 333 331 331 328 328 328 326 325 326 326 325 325 323 321 322 326 327 326 325 324 325 326 325 324 322 322 322 321 319 319 319 319
340 341 341 342 342 342 341 341 341 341 341 339 339 340 340 339 338 337 336 337 338 339 339 338 338 338 337 335 334 332 332 332 332 331 331 331 331 332 333 332 332 331 331 330 328 327 328 329 329 331 334 334 334 333 331 330 329 328 328 327 328 327 327 326 326 323 322 325 327 327 326 325 325 325 325 325 323 321 321 321 318 317 319 318 316
339 340 341 341 342 342 341 340 340 341 340 339 338 339 339 339 337 337 338 338 338 339 339 339 339 338 336 335 333 332 331 331 332 331 331 329 329 331 333 331 332 331 331 331 329 327 328 329 329 332 334 334 334 334 332 330 329 329 329 328 329 328 327 326 324 323 322 324 327 326 324 324 324 323 324 324 322 321 320 318 315 316 317 313 311
339 339 340 340 340 340 339 339 339 340 340 340 339 339 339 338 337 337 339 338 337 339 339 339 339 338 336 335 333 331 330 331 331 332 332 330 329 330 332 332 331 332 331 331 330 329 328 327 328 331 333 334 334 334 333 331 329 329 330 330 329 328 327 325 322 322 322 325 327 325 324 326 326 324 323 322 320 320 319 316 315 316 313 309 309
339 339 339 337 338 337 337 337 338 339 340 340 339 339 339 338 337 338 338 337 338 339 339 340 339 337 336 334 334 332 330 331 331 332 333 333 331 329 330 331 331 331 331 331 331 330 329 327 328 330 332 333 334 334 333 332 330 330 330 330 330 328 326 322 320 321 323 325 324 324 326 328 329 328 326 324 322 321 320 319 318 317 315 313 314
339 339 337 333 335 338 337 334 334 337 338 340 339 339 339 338 339 338 336 337 338 339 339 339 338 337 336 334 334 333 331 332 332 333 334 334 332 329 328 329 329 330 330 330 331 331 331 329 328 329 331 332 333 334 333 331 331 331 331 331 330 328 324 321 319 321 323 324 322 324 327 328 329 330 329 328 327 326 325 325 324 323 323 322 322
339 339 336 333 335 335 333 330 330 333 335 338 338 337 339 338 338 337 335 336 337 338 338 338 336 336 335 334 335 334 333 334 333 334 334 332 329 325 325 327 328 329 329 330 330 330 331 331 330 330 332 332 333 333 332 331 331 331 331 331 329 327 324 321 320 321 322 323 323 325 326 327 328 330 330 330 330 329 328 328 328 327 327 327 326
338 339 338 337 337 333 329 329 329 329 332 335 334 334 337 338 337 336 335 336 337 338 337 336 335 334 334 335 336 335 334 334 334 334 332 330 328 325 324 325 326 328 329 329 330 330 330 331 331 332 332 333 334 333 331 331 331 332 332 331 329 327 323 322 322 321 322 323 324 325 326 326 328 329 330 330 330 330 330 330 329 329 329 328 328
338 338 338 338 338 334 329 330 329 330 332 332 332 332 334 335 336 336 335 336 337 338 337 335 334 334 334 336 336 335 334 334 334 333 331 330 331 330 328 327 327 328 328 328 329 330 331 331 331 332 332 333 333 332 331 331 331 332 332 331 330 327 323 323 323 322 321 322 323 325 326 326 327 328 329 329 329 329 330 330 330 330 329 329 329
338 338 338 338 339 337 333 332 332 334 333 332 334 334 334 333 333 335 337 337 338 338 336 335 335 335 336 336 336 335 335 334 334 333 332 332 333 332 332 331 330 329 329 329 329 330 330 331 331 332 332 333 333 332 331 330 331 332 332 331 330 326 324 324 323 321 320 321 322 324 325 326 327 327 328 328 328 329 330 330 330 330 330 330 329
338 338 339 339 339 339 337 334 334 337 336 335 337 336 336 334 330 333 337 338 337 337 336 335 336 337 337 336 335 335 335 335 334 334 333 333 334 334 334 333 332 332 331 331 331 331 331 331 332 332 333 333 332 331 330 330 330 332 332 332 330 326 325 324 322 320 320 321 323 324 326 326 327 327 328 328 327 327 328 329 329 330 330 329 329
338 338 339 339 339 339 339 336 335 337 336 337 338 337 336 334 331 333 338 338 337 337 336 335 336 336 337 337 335 335 336 335 334 334 334 334 334 334 334 333 333 332 332 332 332 332 332 332 333 333 333 333 331 330 330 329 330 332 332 332 330 327 326 325 321 321 323 324 325 326 327 327 327 327 327 327 326 326 326 327 328 328 329 329 329
338 339 339 339 340 339 339 337 336 336 336 337 337 337 336 335 332 335 338 338 337 337 336 336 336 336 337 337 335 335 336 335 334 334 333 333 333 334 333 332 333 332 332 332 332 332 332 332 333 333 333 332 330 330 329 330 331 332 332 332 330 328 328 326 323 322 324 325 326 327 327 327 327 327 327 326 326 325 326 326 327 327 328 328 328
337 338 338 338 338 338 337 337 336 336 336 337 337 337 337 336 335 336 337 337 337 337 336 336 337 337 337 337 336 335 335 335 334 334 333 334 333 333 333 332 332 331 332 333 333 332 332 332 332 331 331 330 330 330 329 330 331 331 331 331 330 329 329 329 327 325 324 325 326 326 326 326 326 327 326 325 323 324 324 325 326 327 327 328 328
337 337 338 338 337 337 337 338 338 336 336 337 337 337 337 337 336 336 336 336 336 336 336 336 336 337 337 336 336 335 335 334 334 334 333 333 334 333 332 332 332 331 332 333 333 333 332 332 331 331 331 330 330 330 329 330 330 330 330 330 330 330 330 329 328 327 327 326 327 327 326 326 327 327 325 321 320 322 323 325 325 325 326 327 327
335 335 336 336 336 337 338 337 337 336 335 336 336 336 336 336 336 335 335 335 335 335 335 335 336 336 337 337 337 335 335 334 334 333 333 333 334 333 332 332 331 331 332 333 333 333 333 332 331 330 330 330 329 329 329 330 329 329 329 329 329 330 330 330 329 328 328 328 328 327 327 326 327 326 322 318 319 321 322 323 324 325 325 326 327
334 334 334 335 335 336 337 337 335 335 335 335 336 336 335 335 334 334 334 334 335 335 335 336 336 337 337 336 335 335 334 334 334 333 333 333 333 332 332 332 332 332 333 334 334 334 333 332 331 330 330 330 329 329 329 329 329 328 328 328 328 329 329 329 329 329 329 328 328 327 327 327 328 326 322 319 321 321 321 323 324 325 325 326 326
333 333 333 333 333 334 336 336 335 334 335 335 336 336 336 335 334 334 334 334 335 335 336 336 336 337 337 335 334 334 334 334 334 333 333 333 333 332 332 333 333 334 334 334 334 334 333 332 331 330 330 330 330 329 329 329 329 328 328 328 329 329 329 328 329 329 329 329 329 328 327 327 328 327 324 322 323 324 324 324 324 324 325 325 325
333 333 333 332 332 333 335 335 335 335 335 335 336 336 336 335 335 335 334 334 335 336 336 337 337 337 336 334 334 334 333 333 333 333 333 333 333 333 333 333 334 334 334 334 334 333 332 332 331 331 330 330 330 330 330 329 329 328 328 328 328 329 330 329 328 329 329 329 329 328 328 328 328 328 327 324 324 325 325 324 323 324 325 325 325
332 333 332 332 333 333 334 335 335 335 334 335 335 336 335 335 334 334 334 334 334 335 336 336 336 336 335 334 335 334 333 332 333 333 333 333 334 334 334 334 334 334 334 334 334 333 332 332 331 331 331 331 330 330 330 329 329 328 328 328 328 330 330 329 328 329 328 328 329 329 329 329 328 328 328 326 325 325 325 323 322 323 324 324 324
333 333 332 333 333 334 334 335 336 335 334 334 335 335 335 334 333 333 333 333 333 334 334 335 335 335 335 335 335 334 334 334 333 333 332 333 334 334 334 334 334 334 334 334 334 333 332 332 331 331 331 331 330 330 329 329 329 328 327 327 328 329 328 328 329 328 328 328 328 329 329 329 329 328 328 327 326 325 326 324 322 322 323 324 323
334 333 333 334 335 335 335 336 336 335 335 334 334 335 334 334 334 333 333 333 333 333 334 334 334 335 335 334 333 333 334 334 334 333 332 333 334 333 333 332 333 334 334 334 334 333 332 332 332 331 331 331 331 330 330 329 329 328 327 327 327 327 327 327 327 328 329 329 328 328 329 329 329 328 327 327 327 325 326 326 324 322 322 323 322
335 334 336 336 336 336 336 336 336 335 335 335 335 334 334 334 334 333 333 332 332 332 333 333 334 334 334 334 334 333 333 333 334 333 332 334 333 332 332 332 333 334 333 334 334 333 332 332 332 332 332 332 331 331 330 329 329 328 328 327 328 328 327 327 327 327 329 329 327 327 328 328 329 329 327 327 327 326 326 326 324 322 322 322 321
333 333 335 336 335 336 337 336 337 336 335 335 335 334 334 334 334 333 333 333 332 332 332 332 333 333 333 333 333 333 333 333 333 333 333 335 334 332 331 332 332 332 333 334 334 333 332 332 333 332 332 332 332 331 330 330 329 329 328 329 329 328 327 327 327 326 327 328 328 324 324 327 328 328 328 327 327 326 326 326 325 323 323 322 321
327 329 329 331 333 335 336 336 336 337 336 335 335 335 334 334 334 334 333 332 332 332 332 332 332 332 331 332 332 332 332 332 333 333 334 335 334 331 330 332 332 331 333 334 334 333 332 332 332 332 332 332 331 331 330 330 330 329 329 329 329 327 326 326 326 327 325 324 326 323 321 325 326 326 326 326 326 326 325 326 324 324 324 322 320
326 329 329 328 329 331 331 333 334 335 335 335 334 334 335 334 333 332 331 330 330 331 331 331 331 331 331 331 332 331 331 331 332 333 333 334 333 330 330 333 332 330 332 333 333 333 333 333 332 331 332 331 331 331 330 330 330 329 330 330 330 328 327 326 326 327 324 322 324 322 320 324 326 324 324 325 326 325 325 325 324 324 323 320 318
Wind_Speed
21 19 19 19 19 21 21 21 19 19 19 19 21 22 23 23 24 25 27 28 29 29 28 28 27 27 27 27 28 28 27 26 25 26 26 26 25 24 23 22 21 21 20 20 18 17 19 19 19 19 19 21 21 21 21 20 20 20 20 20 21 21 20 20 20 21 21 19 19 20 20 20 20 20 20 19 19 18 18 19 20 20 20 19 19
24 20 20 19 19 21 21 22 20 19 18 19 21 22 23 24 26 27 27 28 28 28 27 27 27 27 27 27 28 27 26 25 26 27 27 26 24 23 23 22 21 21 21 20 18 18 18 19 18 18 19 20 22 22 23 22 21 21 21 21 21 21 21 21 21 22 21 20 19 19 20 20 20 19 19 20 19 19 19 19 19 19 19 18 18
25 22 21 19 20 20 22 22 21 19 18 19 21 22 23 24 26 27 27 27 27 26 26 26 26 26 27 27 26 26 26 26 27 27 27 25 24 23 23 22 21 21 20 20 19 18 18 17 17 18 18 21 22 22 23 23 22 22 21 21 21 21 21 21 21 21 21 21 19 19 19 19 18 18 19 19 19 18 17 18 17 17 17 16 17
26 24 22 21 20 20 22 22 21 20 18 19 21 22 23 24 25 25 25 25 25 25 25 25 25 25 26 26 26 26 26 27 27 27 26 25 24 24 23 22 21 20 20 20 19 18 18 16 17 18 18 20 21 20 21 21 21 21 20 19 19 20 19 20 19 19 20 20 20 20 20 19 18 16 17 17 17 16 15 16 15 15 15 15 15
26 25 25 22 21 21 22 22 22 20 19 19 21 22 23 24 24 24 25 24 24 25 25 24 24 25 25 26 26 26 26 27 27 26 26 26 24 23 23 22 20 20 20 19 19 18 18 17 17 17 17 17 17 18 18 18 19 20 19 18 18 18 17 18 18 17 17 18 18 18 18 18 17 16 16 16 15 14 13 14 14 14 14 14 15
26 26 26 24 22 22 23 23 22 21 19 19 21 23 23 23 24 24 24 23 23 24 24 23 24 24 25 26 27 26 25 26 27 27 27 25 24 23 22 20 19 20 20 19 19 18 18 17 16 15 15 15 15 16 17 17 16 15 15 16 16 16 16 17 17 17 17 17 16 16 16 16 17 17 16 15 14 13 13 13 14 14 15 16 16
26 27 26 24 24 23 24 24 22 22 20 20 22 22 22 22 23 23 22 22 22 24 23 23 23 23 25 26 27 25 24 26 27 27 27 25 24 23 21 20 18 19 19 20 19 18 18 17 16 15 14 13 14 15 16 14 11 9 9 12 14 15 15 15 16 16 16 17 17 16 16 16 17 16 15 14 14 14 14 14 15 17 17 17 17
25 27 26 25 24 24 26 25 23 22 21 20 21 22 21 21 22 22 22 21 22 23 22 22 22 23 25 26 26 24 24 25 26 26 26 25 23 22 21 19 18 18 18 20 19 19 18 17 16 14 14 14 15 15 13 11 9 7 7 10 13 14 14 14 14 14 15 16 17 18 18 18 17 16 15 15 15 15 15 16 17 17 17 17 17
25 25 25 25 24 24 26 25 23 22 21 20 20 21 20 20 21 21 21 21 21 21 20 21 22 23 25 26 24 23 24 25 25 26 25 25 24 22 20 19 18 17 18 20 19 19 18 17 16 15 15 15 15 14 12 10 9 9 10 12 15 13 12 13 13 14 14 15 17 19 20 19 18 17 16 16 16 16 18 18 18 17 17 16 17
24 24 24 25 24 24 25 25 23 22 21 20 20 20 20 20 20 21 21 20 20 19 19 20 22 24 24 23 22 22 24 24 25 24 23 24 23 21 20 19 16 16 18 19 19 20 20 19 17 17 16 15 14 13 12 10 10 11 12 14 16 13 11 11 12 13 13 15 17 18 18 18 19 18 17 17 17 17 18 19 17 17 16 16 16
23 24 24 24 24 24 25 24 22 21 20 20 19 19 20 19 20 21 20 19 19 19 19 19 21 24 24 21 20 22 23 24 25 23 22 22 21 21 20 18 16 15 17 19 19 20 20 19 18 17 16 14 13 13 12 11 12 13 13 14 16 13 11 10 11 13 14 15 15 15 16 18 19 18 17 18 18 17 17 17 17 17 17 16 16
23 24 23 23 23 23 24 23 22 20 19 19 18 19 19 18 20 19 19 19 20 19 19 19 21 24 23 20 20 22 23 23 24 22 21 20 20 20 18 17 15 14 15 18 20 21 21 19 18 16 15 14 13 13 13 13 14 15 15 15 14 13 12 10 12 15 15 15 16 17 18 18 17 17 17 17 17 16 16 16 16 16 16 16 16
23 23 22 23 22 22 22 22 22 20 19 19 18 18 17 18 19 18 18 18 20 20 18 19 21 23 23 22 21 21 22 23 22 20 19 19 19 19 18 16 15 14 14 17 20 21 21 19 17 15 14 14 13 13 14 15 16 16 16 15 13 12 11 12 14 15 16 18 19 20 19 17 16 15 16 15 16 16 15 15 15 15 14 14 14
23 22 22 22 21 20 21 22 21 20 20 19 18 17 17 17 18 17 16 18 20 20 19 19 20 22 23 23 22 22 22 22 20 19 18 17 18 17 17 16 15 14 14 15 19 22 21 19 16 15 15 14 13 14 15 15 16 16 15 13 11 10 11 13 15 17 19 19 19 19 17 16 15 15 15 14 15 15 15 15 14 13 13 13 13
23 22 23 22 20 20 20 20 20 21 21 20 19 17 17 17 17 16 16 18 19 19 19 19 20 20 22 23 22 22 22 20 19 19 17 16 16 16 16 16 15 15 14 14 19 23 22 19 16 16 15 13 13 14 15 15 16 15 13 11 10 9 11 14 17 19 20 19 18 17 17 15 14 14 14 14 14 14 14 14 14 13 13 12 12
23 23 22 21 20 19 19 19 20 20 20 20 18 17 17 16 17 16 16 18 18 19 19 19 20 20 20 22 22 22 21 19 19 18 17 15 15 15 16 16 15 15 14 15 19 24 23 19 18 17 15 13 13 14 15 14 14 14 12 11 10 11 12 16 20 20 20 18 17 16 15 15 13 13 14 13 14 14 14 14 13 13 12 12 11
22 22 21 20 19 19 19 19 19 19 18 18 17 17 17 17 17 16 16 18 18 18 19 19 19 18 19 21 21 20 19 18 18 17 16 14 14 15 15 16 16 15 15 16 20 24 23 20 19 18 16 14 14 15 15 14 14 13 11 11 11 13 15 18 21 20 19 18 17 16 16 14 13 13 14 13 14 14 13 13 12 12 12 12 11
21 21 20 19 19 18 19 19 19 20 18 17 16 16 17 18 17 16 17 18 19 18 18 18 17 18 18 20 20 19 18 17 16 15 14 13 13 14 15 16 16 16 16 18 22 24 23 21 20 18 16 15 15 16 17 15 14 12 11 11 12 14 16 18 20 20 19 18 17 17 16 14 13 13 13 13 13 13 12 12 11 12 12 11 11
20 19 19 18 19 19 19 19 20 21 20 18 17 16 18 19 17 16 17 19 19 19 17 17 17 17 17 18 18 17 16 16 15 15 13 12 13 13 14 15 16 16 16 19 23 24 23 21 20 19 17 15 15 16 16 15 13 12 11 11 12 14 16 18 20 21 19 18 17 17 16 14 13 13 13 12 12 12 12 12 11 12 11 11 11
20 19 19 18 19 20 20 20 21 21 20 20 18 17 18 18 17 17 17 20 20 19 17 17 17 16 16 16 15 15 15 15 15 15 13 12 12 12 13 14 16 16 15 19 23 24 23 21 20 19 18 16 15 14 14 13 13 12 12 12 12 14 16 18 19 19 18 17 16 16 15 14 14 13 13 12 12 12 12 12 12 11 11 12 12
20 19 20 19 19 20 21 21 22 22 21 19 18 18 18 17 16 16 17 19 20 18 17 17 17 16 16 16 15 15 15 14 15 14 13 13 12 11 11 13 15 16 15 18 23 23 22 20 19 19 18 17 14 13 13 12 13 13 12 12 13 14 16 18 19 19 18 16 16 15 14 13 13 13 12 12 12 11 11 12 12 12 12 12 11
18 19 19 19 19 19 21 23 23 22 21 20 19 20 20 18 16 16 17 19 18 17 17 17 17 17 16 16 16 15 15 15 14 14 14 13 12 11 11 12 14 15 14 16 21 23 21 19 18 17 16 14 13 13 13 12 13 12 13 13 13 14 16 17 18 18 17 17 15 14 14 13 13 13 13 12 12 11 12 12 12 12 11 11 11
17 19 19 19 19 20 21 23 23 22 21 20 20 20 20 19 17 16 17 18 18 17 17 17 17 17 16 16 16 15 14 15 14 14 14 13 12 11 11 13 14 15 15 14 18 22 22 19 17 16 14 13 12 12 14 15 14 13 13 12 13 14 15 16 16 16 16 16 14 12 13 13 13 12 12 13 12 12 12 11 11 11 11 11 11
19 21 20 20 19 20 20 21 20 19 18 18 18 19 18 17 16 16 17 18 17 17 17 17 17 16 16 16 16 15 14 13 12 13 12 12 11 11 11 13 14 15 16 14 16 21 22 19 17 15 13 12 12 13 14 15 15 13 12 12 13 14 14 15 14 14 15 14 13 13 13 13 12 12 12 13 12 11 11 11 10 10 10 10 9
19 19 18 18 16 17 17 17 16 16 16 16 17 17 17 17 16 16 17 18 17 17 16 16 17 16 15 16 16 15 14 13 13 13 12 12 12 12 12 14 15 15 17 16 15 19 22 20 17 14 12 11 12 13 13 15 15 13 11 12 13 14 14 13 13 13 14 14 14 13 12 11 11 12 12 12 11 10 10 10 10 9 9 9 9
17 16 16 16 14 14 14 15 14 15 15 16 18 18 18 18 18 18 17 18 18 17 17 16 17 17 16 16 15 14 14 13 13 12 13 14 13 14 14 14 15 15 17 17 16 18 21 20 16 13 12 11 11 12 13 14 14 13 12 12 13 13 13 12 12 12 13 15 14 13 11 9 10 11 11 11 11 10 10 10 9 9 9 9 9
18 16 16 15 14 14 14 14 14 15 15 16 18 19 20 19 18 18 18 18 17 17 18 18 18 17 16 16 16 15 15 14 12 11 13 14 14 15 15 14 14 14 16 17 17 18 19 19 16 13 11 10 10 11 12 12 13 13 13 13 12 13 12 12 12 12 14 15 14 12 10 10 10 10 10 10 10 10 11 10 9 10 9 8 9
20 18 16 16 16 16 16 15 15 16 15 15 16 18 20 19 19 18 17 17 17 17 18 19 19 18 16 17 17 16 15 14 13 12 12 12 13 16 16 15 15 15 15 16 17 18 18 17 15 12 10 9 9 10 10 11 12 13 13 13 12 12 12 11 11 12 13 15 14 12 12 12 11 10 11 11 11 11 11 11 10 10 9 9 10
20 19 18 19 20 21 20 18 17 17 16 15 15 17 18 18 18 17 16 17 17 17 18 19 19 19 18 18 17 16 16 15 14 13 12 11 12 15 17 16 15 16 16 16 16 17 17 16 15 13 10 8 7 8 8 10 12 13 13 13 13 12 12 11 11 12 13 15 14 13 15 16 13 12 13 13 13 14 13 12 12 11 10 10 11
19 21 23 24 25 23 22 20 19 19 18 16 14 14 15 15 16 16 17 18 18 17 18 19 20 20 19 18 16 16 16 15 15 14 13 12 11 14 17 17 16 17 17 15 15 16 17 16 15 14 10 6 5 6 7 8 11 13 13 12 12 12 12 11 11 12 13 14 14 16 19 17 13 12 13 14 15 15 15 15 14 13 12 13 12
20 24 27 29 27 24 23 22 21 20 20 19 17 15 15 16 17 17 18 19 18 18 19 20 21 21 20 18 17 16 16 16 15 14 13 12 12 13 16 17 16 17 17 16 14 14 15 16 15 14 10 7 5 6 6 8 11 14 13 13 12 12 12 11 12 13 14 14 15 18 18 14 13 11 11 12 13 14 15 15 15 14 13 13 12
24 28 29 29 28 27 26 25 24 23 22 22 21 20 20 21 22 21 21 21 20 20 20 21 22 22 20 19 18 17 16 15 15 14 13 12 12 12 14 17 17 18 17 16 15 14 14 14 14 13 11 8 7 7 8 8 11 14 14 13 12 12 12 11 12 13 14 14 17 18 16 14 13 11 9 9 9 10 11 11 12 11 11 11 10
27 28 28 27 27 29 29 28 26 26 25 24 23 23 23 23 22 23 23 22 21 22 23 23 23 22 21 20 19 17 16 16 15 15 14 13 12 11 13 15 17 18 18 16 16 16 14 14 13 13 12 10 8 9 10 10 12 15 16 14 13 12 11 11 12 13 13 14 17 17 15 14 13 10 10 7 6 6 8 8 8 8 8 8 7
28 29 30 27 28 29 29 30 29 29 28 27 27 27 25 23 23 24 23 23 24 25 25 25 24 22 21 21 19 18 17 16 16 16 16 15 14 13 12 14 16 18 18 17 17 16 16 14 13 13 12 11 10 10 11 12 14 16 17 15 14 13 12 12 12 12 12 13 15 17 15 14 12 10 9 6 4 5 6 6 6 5 5 5 5
28 30 31 30 31 31 30 32 32 31 31 30 30 29 26 25 24 24 24 25 26 27 27 26 23 22 22 22 20 19 18 18 17 18 17 16 15 13 13 14 15 17 18 18 18 17 17 15 14 14 14 13 12 12 12 14 16 17 17 16 14 13 13 13 12 12 13 13 15 16 15 14 12 10 8 5 4 4 5 5 4 4 4 3 4
30 31 31 32 33 33 32 34 33 32 32 31 30 28 27 25 25 25 26 27 28 28 28 26 23 22 23 22 21 20 20 20 20 20 19 17 16 14 15 15 15 17 18 18 18 18 17 16 16 16 16 15 14 13 14 15 16 17 17 17 15 14 14 13 13 14 14 15 15 16 15 13 11 9 6 5 4 4 4 4 4 3 3 2 2
32 32 32 33 34 35 35 35 31 29 31 30 28 26 25 24 25 27 28 29 29 29 27 26 25 24 24 23 22 21 22 22 22 22 21 18 17 16 17 18 17 19 19 19 19 19 18 18 18 18 17 17 17 16 16 16 17 17 17 16 15 15 15 13 14 15 16 16 15 14 13 11 9 7 5 4 3 3 4 4 4 4 3 3 3
33 34 34 34 34 35 35 31 26 27 29 29 27 26 25 25 26 28 30 30 30 29 28 27 26 25 25 25 24 23 23 23 23 23 21 19 18 18 19 20 18 19 21 20 20 20 19 19 19 20 18 18 19 19 18 18 17 17 17 16 16 15 13 12 13 15 15 15 13 12 10 9 8 6 4 3 2 2 4 4 4 4 4 4 4
33 34 34 33 32 32 32 29 27 27 27 27 27 26 25 26 27 29 30 30 30 30 28 27 27 26 27 27 26 26 25 25 25 24 22 20 20 19 20 20 17 19 21 20 20 22 21 20 20 19 18 18 19 20 20 19 17 16 16 15 13 12 11 11 12 12 13 12 11 10 9 8 7 5 4 3 2 3 4 5 5 5 5 5 5
33 33 33 31 30 30 31 32 31 28 27 27 27 28 27 26 27 28 28 28 29 29 28 28 28 28 28 28 28 28 27 26 25 24 22 20 20 21 20 19 17 19 22 21 22 22 22 21 20 19 20 18 18 20 21 20 18 15 14 14 12 10 10 10 11 11 10 9 8 8 8 8 6 5 4 3 4 5 5 5 5 5 5 5 6
29 28 29 31 31 32 33 33 32 29 29 30 30 30 29 28 28 29 29 28 28 27 28 29 30 29 28 28 29 28 27 27 26 24 22 21 21 21 21 21 19 21 23 20 20 20 20 20 19 20 21 20 19 19 20 22 19 15 12 11 11 11 10 10 11 10 10 9 7 8 8 8 7 6 5 4 5 5 5 5 5 5 5 6 8
26 26 29 31 30 30 31 30 29 29 31 33 34 33 33 32 32 31 30 29 27 27 29 30 31 30 28 27 27 26 26 27 26 25 22 22 23 22 22 22 20 22 23 19 19 19 19 20 21 21 20 21 21 20 22 21 16 13 11 8 6 7 7 8 10 10 10 9 8 7 7 7 7 7 6 5 6 5 5 5 5 6 6 7 9
23 23 26 27 25 27 28 27 28 31 32 33 34 34 34 34 32 31 29 27 26 27 29 29 29 28 26 26 26 26 25 26 26 24 22 22 24 24 24 23 23 23 23 20 20 20 21 21 22 22 21 20 19 22 23 19 16 15 11 6 2 3 3 4 7 9 10 9 9 8 6 6 8 9 8 6 6 6 6 5 5 5 6 7 8
21 23 26 27 27 28 30 29 30 32 32 32 33 33 31 30 29 28 26 25 24 25 26 27 28 28 26 24 24 26 25 25 25 24 23 22 24 25 25 26 25 24 22 22 22 22 23 23 24 24 24 21 18 21 21 17 19 18 9 3 1 1 1 2 5 6 9 10 10 10 8 8 8 8 9 8 6 6 5 5 5 5 6 6 7
20 23 25 26 28 29 30 29 29 30 30 30 31 30 27 26 24 22 22 22 21 22 24 25 27 28 27 25 25 26 25 25 25 25 24 23 24 25 27 28 26 24 23 23 22 22 24 25 26 26 26 24 21 22 20 15 19 21 13 6 3 1 1 4 6 4 7 10 9 10 9 9 9 7 9 9 7 6 5 5 5 5 5 5 6
19 21 21 22 23 25 27 27 27 30 31 31 32 31 28 25 24 23 24 24 21 24 27 27 28 28 27 27 26 26 26 25 26 25 24 24 24 25 27 27 25 25 24 23 22 23 25 26 27 27 25 25 23 23 22 16 18 20 15 12 6 3 7 9 6 2 5 8 7 8 9 9 9 8 8 10 9 8 6 5 5 5 5 6 6
19 20 19 18 19 22 25 28 29 30 31 30 31 32 30 29 28 27 27 26 25 27 29 28 28 29 28 26 24 24 25 25 25 25 24 24 24 24 25 25 24 25 25 24 23 23 25 26 27 26 25 24 23 24 24 19 20 19 14 13 5 5 15 16 7 4 4 5 6 7 8 9 9 9 10 11 11 10 8 6 5 5 6 6 6
16 19 19 20 22 23 24 24 25 26 27 26 27 29 30 30 29 28 25 26 26 25 26 27 27 27 27 25 24 23 23 23 24 24 24 24 23 23 25 24 24 25 25 25 24 24 26 26 26 26 24 24 22 23 25 22 22 20 16 14 6 7 19 17 12 11 5 2 4 5 7 9 10 10 11 12 12 11 10 8 7 6 6 6 5
6 8 12 16 19 17 17 18 18 20 22 22 23 26 28 28 27 27 25 24 24 21 21 23 24 24 23 22 22 24 23 22 23 23 23 23 22 23 26 25 24 25 25 25 25 24 25 26 27 26 25 25 23 23 24 25 25 22 19 15 8 11 18 12 13 14 7 4 4 3 8 9 9 11 12 13 13 12 11 10 8 7 6 5 5
20 18 14 8 8 7 7 10 12 14 18 20 22 23 24 24 24 24 24 22 19 18 18 20 20 19 19 18 19 22 23 23 23 22 23 23 22 24 25 24 24 25 26 26 25 25 25 25 26 27 27 25 25 24 24 25 26 23 19 16 12 15 15 8 12 14 8 6 4 4 10 11 9 10 12 14 14 13 13 11 10 8 7 5 5
18 15 14 16 15 12 12 8 6 8 11 16 20 21 22 22 22 20 18 19 19 17 15 17 18 17 17 18 20 21 22 23 24 23 24 23 23 24 24 22 23 25 25 25 25 25 24 24 25 27 27 26 26 26 25 24 25 24 19 16 15 16 17 13 16 18 13 8 5 5 10 12 11 11 11 14 15 14 14 13 12 10 8 6 5
Wind_Direction
163 163 166 166 163 160 158 157 155 153 149 149 146 141 137 135 135 135 135 134 132 130 127 126 124 123 121 120 119 118 117 115 112 109 108 107 107 106 106 105 104 103 102 102 97 92 95 96 92 87 84 90 94 94 93 93 94 93 92 91 92 93 92 91 92 93 92 92 93 94 92 92 92 94 95 94 94 94 93 91 90 88 86 84 84
164 164 167 163 162 160 160 160 157 155 151 151 148 143 139 138 137 135 135 134 133 131 129 127 125 124 122 121 121 119 117 113 110 109 109 108 107 107 107 107 106 105 104 105 102 96 95 96 93 86 84 90 90 92 92 92 93 92 91 90 90 90 89 89 90 90 91 90 90 91 92 92 92 94 96 95 93 92 92 90 88 87 85 83 83
160 163 167 160 161 160 161 162 159 158 155 153 150 146 142 140 139 136 135 134 134 132 130 128 126 125 123 123 121 118 115 110 108 109 110 110 109 108 108 108 107 107 107 107 105 101 98 95 93 90 89 91 89 90 91 91 91 90 89 87 87 87 87 89 87 87 89 89 86 83 83 84 86 88 90 90 90 89 87 86 86 85 85 85 84
160 162 164 159 161 162 162 163 161 161 159 156 153 149 145 143 140 137 136 135 134 133 131 128 126 125 123 122 119 117 113 111 111 112 111 110 109 108 108 108 108 107 107 109 109 106 102 96 94 94 93 93 91 91 91 91 91 88 86 85 87 88 88 90 88 88 90 90 90 87 83 79 79 80 83 84 83 83 83 82 82 81 81 80 80
159 160 162 159 162 163 163 164 163 163 162 159 155 152 149 146 143 140 137 135 133 132 131 128 126 123 122 120 119 118 116 115 115 114 112 110 109 108 108 108 109 109 109 111 112 109 104 100 98 97 96 94 92 93 94 92 90 85 83 86 87 87 89 89 89 89 90 90 89 89 87 82 76 71 72 76 77 79 80 78 78 79 78 76 75
159 160 161 160 163 165 165 166 164 165 165 161 157 155 152 149 146 143 141 135 131 131 129 127 126 123 123 121 121 120 119 118 117 116 113 111 110 109 109 107 105 108 111 112 113 111 106 104 101 99 97 93 92 96 98 93 87 83 86 90 89 89 91 90 89 89 89 88 86 83 81 78 72 67 69 74 77 79 80 80 79 79 78 76 75
160 160 160 161 164 164 168 168 166 167 167 163 160 157 154 150 147 145 142 135 131 130 127 127 126 124 125 124 123 124 123 121 120 119 115 113 112 111 110 108 105 105 109 112 113 112 110 108 105 101 98 95 97 100 98 89 79 77 89 99 99 94 92 93 90 89 88 85 83 80 78 79 77 73 73 78 81 81 81 82 81 80 78 77 77
158 160 160 162 164 165 169 168 168 168 167 165 161 157 154 150 148 146 140 133 131 130 128 128 125 126 127 127 127 127 126 125 124 120 117 116 114 114 112 111 111 110 112 114 114 114 114 113 109 106 106 107 107 102 91 79 73 79 84 101 111 101 95 94 88 87 87 86 84 83 83 86 86 81 80 83 85 83 82 83 82 82 81 83 85
157 160 161 163 163 164 168 168 168 167 167 165 160 156 152 149 146 143 139 133 132 130 130 129 127 128 129 129 129 129 129 128 125 121 122 122 120 120 118 116 115 113 116 120 121 120 120 118 117 118 119 114 107 95 82 77 83 93 87 102 122 117 106 96 87 87 87 87 88 89 90 88 88 85 84 86 87 85 84 85 84 84 83 84 86
158 161 163 165 163 164 168 168 166 164 166 163 157 154 150 148 143 140 139 135 132 132 132 132 130 130 131 130 130 131 131 130 128 126 126 126 125 123 120 117 114 110 114 124 129 130 130 128 127 125 121 111 101 88 79 84 94 100 93 108 131 132 116 102 90 89 89 91 91 91 88 85 85 84 85 87 87 86 84 85 87 89 87 83 83
158 162 165 166 164 166 168 167 164 162 163 159 156 153 150 148 144 141 140 137 135 135 135 135 133 133 134 131 132 134 133 134 133 130 127 125 124 121 120 117 113 110 113 124 131 135 136 134 131 125 117 106 96 86 85 98 104 104 99 112 133 135 122 107 96 96 96 95 91 86 86 85 85 85 86 86 86 87 88 90 91 90 88 85 87
159 163 165 163 164 167 168 167 163 161 160 157 156 152 151 148 145 144 142 140 139 139 138 139 136 136 138 133 135 137 136 137 134 129 127 126 124 122 121 118 114 111 114 125 133 138 139 137 132 124 114 102 91 89 99 111 115 112 107 114 128 131 122 108 102 103 100 91 86 85 89 88 85 86 86 86 85 87 89 90 88 84 84 86 88
159 163 162 160 165 168 166 166 164 162 160 158 158 154 153 150 148 147 145 144 144 143 143 144 141 139 142 139 139 140 138 137 133 130 129 128 127 125 124 120 116 113 116 125 134 140 142 140 134 123 110 98 93 99 111 119 121 117 112 113 119 124 118 110 107 104 99 92 89 90 92 89 88 90 88 88 86 85 84 84 82 81 83 83 83
158 160 159 160 166 166 164 166 167 164 162 161 160 157 154 154 152 150 148 149 148 148 149 149 146 142 145 144 142 141 140 136 133 132 131 130 130 129 127 123 119 117 117 124 136 143 145 143 134 121 106 98 98 107 119 124 122 116 109 106 106 113 113 112 111 106 102 98 97 97 95 91 90 90 89 88 87 84 83 82 81 81 82 80 82
155 157 157 161 164 164 164 166 169 167 166 165 164 161 159 159 157 154 153 153 151 152 154 154 150 146 147 148 146 142 139 135 133 132 132 134 133 130 127 123 121 118 118 124 136 144 146 143 131 117 105 99 99 109 122 122 118 111 99 93 91 100 110 114 112 107 105 103 104 104 100 94 90 91 92 91 88 86 85 85 84 82 82 82 82
151 154 157 159 161 163 164 166 170 169 169 167 166 167 167 167 162 159 159 156 152 154 156 156 155 151 151 152 149 143 140 140 138 135 134 137 135 130 126 123 121 119 119 125 135 142 145 139 128 115 104 98 97 107 119 118 113 105 94 90 90 97 108 115 112 108 106 104 104 104 100 93 90 92 93 91 89 88 88 87 86 85 84 84 82
149 152 154 155 159 161 163 167 169 168 168 167 168 173 174 171 165 163 162 158 155 155 156 157 156 154 154 154 151 148 146 146 144 140 138 139 136 128 124 122 121 120 121 128 135 140 141 135 125 114 104 97 98 108 117 117 113 106 99 96 96 101 110 116 114 111 108 104 101 100 97 94 92 91 90 89 87 89 90 88 89 89 86 86 84
148 150 151 153 157 162 165 166 167 167 167 167 171 178 176 171 167 165 163 160 156 156 157 156 155 155 157 155 153 152 151 148 148 148 145 143 139 127 123 123 123 122 123 134 139 138 139 133 124 114 104 101 104 112 118 118 117 113 106 102 104 110 115 116 114 112 109 105 102 100 99 98 97 93 91 90 89 89 89 87 89 89 84 83 85
146 148 149 153 159 164 166 166 168 168 169 170 173 178 176 171 168 167 165 162 159 161 161 158 155 156 155 154 155 155 151 148 151 154 149 144 141 129 125 126 126 125 126 138 142 140 139 133 125 115 105 105 109 117 120 121 123 117 107 103 109 115 117 117 115 113 111 109 106 104 103 101 98 95 95 94 92 90 87 87 87 88 85 83 85
146 149 152 156 162 165 167 168 170 172 173 173 173 176 175 173 170 169 168 165 164 167 166 161 158 156 154 154 155 155 153 151 152 154 148 145 144 134 129 130 131 129 129 142 147 144 141 135 126 117 110 108 112 121 125 126 124 114 106 105 110 117 121 121 120 115 112 111 108 107 105 101 99 98 98 96 93 90 89 89 88 87 85 84 84
147 152 157 160 163 165 168 171 173 176 177 175 175 174 175 177 174 172 171 169 169 171 168 163 161 160 159 160 159 157 157 156 155 155 150 146 145 139 136 135 135 135 133 143 151 150 145 140 130 123 118 112 113 122 130 132 123 112 107 107 111 117 121 121 118 115 113 112 108 105 106 105 103 102 99 98 96 93 90 88 87 86 85 86 86
148 155 161 163 164 165 171 174 176 179 178 178 178 174 177 181 177 174 173 172 173 173 169 167 166 165 167 168 167 162 160 159 159 161 156 149 145 141 141 143 142 141 139 143 154 156 151 146 137 131 126 116 112 119 131 138 126 114 110 109 112 116 119 118 117 118 118 115 112 112 113 110 105 103 101 100 97 93 91 89 88 90 89 88 87
154 161 165 167 167 169 174 177 179 181 179 180 179 176 179 180 177 175 176 176 176 175 173 171 170 169 173 175 173 169 165 162 163 165 161 155 150 145 147 151 148 147 147 145 154 160 158 152 143 138 130 118 110 112 128 140 132 120 114 111 113 117 120 120 120 121 122 119 116 116 113 108 107 107 105 104 101 97 96 95 92 94 94 90 89
168 169 167 169 173 174 175 179 180 180 179 179 177 176 179 179 177 177 179 180 181 180 177 175 174 175 177 178 177 173 170 165 166 168 169 169 162 155 155 159 156 152 154 152 152 159 161 155 147 142 131 117 107 106 122 137 135 125 119 116 114 118 120 120 121 119 121 122 117 112 109 111 113 110 106 106 105 104 104 102 99 99 99 96 96
177 171 166 168 172 173 175 178 180 181 180 180 177 177 181 182 180 181 183 183 185 184 181 180 181 182 180 179 180 178 173 167 170 176 180 183 175 169 167 166 164 158 159 160 154 156 160 156 149 144 132 118 107 105 120 133 137 132 124 121 118 118 117 118 118 117 119 117 113 113 114 116 116 112 112 113 110 109 108 105 103 102 102 99 94
176 170 165 166 169 170 176 178 181 187 187 186 182 183 188 189 186 184 185 186 189 189 186 186 187 188 183 182 184 181 178 174 179 183 186 187 184 182 176 171 170 164 163 165 160 155 157 156 152 145 132 125 111 106 120 134 141 142 133 127 123 119 117 119 118 118 117 114 113 115 113 108 108 112 115 117 115 113 109 104 103 102 99 97 94
172 171 166 165 172 173 179 183 187 193 194 194 189 189 194 195 191 186 188 190 192 193 190 190 193 192 185 186 187 186 186 184 188 188 186 188 186 185 179 175 174 169 166 168 166 159 158 159 157 149 136 133 117 106 121 135 145 147 140 135 127 122 121 124 122 119 119 118 117 117 113 109 110 116 116 116 117 113 110 109 105 98 94 91 92
172 167 165 168 177 178 182 188 193 196 197 201 199 198 202 200 193 188 190 194 197 197 196 195 195 196 191 189 190 192 195 192 192 190 189 189 185 185 183 180 179 175 170 169 171 166 163 166 165 156 143 138 121 107 118 135 150 153 147 140 131 127 128 128 125 121 122 122 120 117 112 102 97 106 111 110 111 108 105 105 101 96 94 91 89
170 163 169 177 185 186 186 189 193 195 198 207 212 210 210 206 195 190 192 198 201 200 201 200 197 198 195 193 194 198 201 198 195 193 193 189 183 187 190 188 183 181 176 171 173 172 171 173 172 166 155 147 127 114 121 137 153 159 154 147 137 133 132 130 128 125 125 125 124 121 111 100 91 93 102 104 105 106 103 99 98 98 97 95 94
170 167 176 186 191 189 187 188 191 194 196 205 215 216 216 212 201 195 198 202 202 200 200 200 201 201 197 197 201 204 203 201 197 194 194 192 188 189 194 195 189 186 182 175 172 174 177 178 178 175 168 167 146 129 134 144 156 164 162 152 142 139 135 131 132 131 130 130 130 124 114 112 111 100 99 102 102 103 102 100 100 100 100 99 100
175 175 184 190 190 188 188 191 192 194 196 200 206 208 210 213 209 205 205 203 201 202 200 200 204 203 201 202 204 207 205 200 197 197 197 198 200 197 197 198 192 188 186 180 173 172 177 181 183 183 183 190 175 147 151 157 161 168 167 157 148 143 137 133 136 139 136 133 131 129 124 126 129 120 111 109 107 106 104 103 101 100 101 101 102
181 183 189 190 189 190 194 196 193 196 200 200 202 203 205 208 210 210 209 206 203 204 203 204 205 205 206 204 202 207 206 199 197 198 198 198 200 199 196 196 192 189 186 182 176 173 176 179 184 188 193 200 188 162 162 166 166 170 170 161 153 144 139 138 141 142 140 135 133 135 138 136 133 135 135 122 114 115 112 110 107 103 102 101 103
183 185 188 191 193 195 198 199 196 198 201 201 205 208 207 207 211 215 213 211 206 205 205 205 206 208 208 204 201 205 204 200 198 196 193 191 190 189 189 190 188 186 186 184 181 180 180 179 184 194 201 203 193 172 168 169 167 171 172 165 156 147 144 145 145 144 143 140 139 144 146 142 140 142 143 131 113 116 115 116 114 111 110 108 108
182 184 187 192 198 200 201 202 200 199 198 202 207 209 208 208 214 219 217 214 210 208 207 205 207 210 210 206 203 204 204 203 201 196 191 190 189 187 186 183 181 184 187 187 188 188 187 188 194 204 209 206 198 185 179 173 167 170 172 167 157 151 150 149 145 143 145 146 147 152 152 147 149 148 146 141 117 108 110 111 112 117 124 126 124
182 184 189 193 200 203 204 206 203 198 197 203 206 204 205 205 212 219 218 215 212 210 208 207 208 211 211 211 208 207 206 206 205 199 194 195 196 197 198 191 185 187 187 188 192 195 197 200 206 208 206 202 198 190 186 180 171 171 171 166 160 155 153 149 144 141 143 147 150 155 156 153 154 152 151 147 128 118 116 113 113 117 127 138 144
187 187 189 193 199 204 208 210 205 197 197 203 202 200 201 202 210 219 220 218 214 212 210 209 209 210 213 215 213 211 210 210 208 203 200 203 204 208 213 210 205 199 196 195 196 202 205 205 208 210 202 195 194 189 186 181 173 171 171 168 162 157 154 149 144 142 141 142 146 151 153 152 151 151 149 141 129 126 123 122 118 110 105 113 129
192 191 191 192 198 204 210 211 205 198 198 200 198 199 200 203 211 217 220 219 217 215 212 211 211 212 214 216 215 213 213 215 211 206 205 209 215 217 214 212 215 213 206 204 206 209 208 204 203 204 202 194 188 184 180 175 171 171 171 168 166 162 157 150 145 143 143 143 144 147 149 149 146 143 140 137 136 135 132 127 121 119 110 99 103
194 196 197 197 199 205 209 209 205 202 202 200 198 201 202 205 211 217 218 217 217 217 215 214 214 213 214 216 216 213 215 217 213 209 208 215 224 223 213 204 213 221 211 205 210 209 205 202 197 195 198 194 185 180 176 170 166 167 168 169 173 168 159 154 150 148 149 148 147 148 147 144 140 137 137 138 146 144 132 123 117 118 116 108 105
194 198 201 200 200 203 207 208 208 206 205 201 199 201 201 202 208 215 218 218 219 219 217 217 218 216 214 216 217 216 216 217 214 211 210 219 223 217 210 201 205 217 206 196 200 199 196 196 194 191 191 190 184 176 170 164 160 162 165 168 171 168 165 168 164 158 157 155 152 153 149 145 143 140 140 139 136 134 127 119 115 115 115 113 108
195 199 200 200 199 201 206 210 208 205 205 202 197 198 198 198 205 211 215 218 220 220 219 221 222 221 218 215 215 216 216 214 213 210 212 222 218 209 206 197 195 203 196 186 189 192 192 192 192 190 184 180 175 169 166 161 151 148 156 163 162 164 173 178 178 175 171 163 157 157 154 153 152 147 144 138 129 125 119 113 114 115 110 113 113
197 199 200 201 202 203 206 208 205 202 205 202 196 197 197 197 202 207 212 215 217 218 219 221 223 223 221 217 214 213 212 210 209 210 215 220 213 206 205 197 193 198 195 188 189 191 192 193 189 187 184 175 166 165 167 156 141 132 138 147 153 164 175 179 182 188 186 177 167 162 159 161 160 154 148 139 131 122 116 112 111 112 110 118 122
198 199 202 203 205 205 205 206 204 202 206 205 200 200 203 204 205 207 210 211 213 214 216 220 222 222 222 220 215 211 208 207 208 213 218 217 209 204 202 200 196 197 197 194 194 192 193 194 186 181 181 175 168 168 168 156 138 133 133 126 131 159 177 182 181 186 193 191 184 177 174 175 170 164 158 140 131 121 113 113 108 109 116 125 128
199 200 203 204 205 206 206 208 208 207 208 207 205 205 207 210 210 211 209 207 210 213 215 219 220 220 219 218 215 208 205 207 209 213 215 212 206 201 199 198 195 196 198 195 193 193 193 193 188 182 177 170 167 169 170 163 147 136 129 124 120 148 162 174 177 185 195 197 194 194 195 195 185 175 168 151 135 126 116 114 112 115 124 131 133
200 201 202 203 204 205 206 208 211 212 210 209 209 209 209 210 212 213 210 206 208 211 215 218 218 218 215 212 213 208 206 208 209 209 208 207 205 200 197 196 195 198 199 194 191 193 194 192 189 186 178 168 165 170 173 171 163 151 132 105 105 156 159 147 162 182 196 197 198 202 206 205 196 184 174 165 154 139 122 119 120 125 133 138 140
206 208 207 203 202 204 206 209 212 213 212 211 211 210 208 206 207 208 205 204 205 206 210 213 214 216 213 209 208 207 206 207 207 205 203 207 207 200 197 196 196 199 197 195 195 195 197 195 190 187 183 177 171 173 176 177 178 170 157 143 132 192 204 147 150 173 199 197 194 198 203 204 199 189 178 176 175 161 137 132 135 137 143 148 149
212 218 217 213 208 207 207 210 214 213 212 212 210 208 206 202 199 198 196 196 198 202 206 208 209 210 211 210 207 206 206 206 206 204 202 208 209 202 199 197 196 198 198 198 198 198 199 197 194 191 188 186 180 176 178 182 187 182 172 165 167 210 178 153 152 182 193 196 198 198 203 204 198 192 185 183 187 185 170 156 152 152 156 159 160
211 215 219 221 218 214 210 210 214 214 214 212 210 207 204 201 200 200 200 199 201 206 208 209 210 210 209 210 208 207 209 207 206 204 204 210 210 205 206 204 200 199 199 199 199 201 201 199 198 196 192 190 186 181 181 184 188 192 191 183 200 229 180 166 167 167 161 191 200 197 205 207 196 193 195 193 196 200 196 189 179 167 170 170 169
216 213 213 216 219 219 215 215 217 217 218 216 212 209 206 203 203 203 205 206 209 213 211 209 211 211 210 210 209 210 213 212 207 204 206 212 211 209 213 212 206 203 200 200 201 202 201 199 199 199 197 196 197 193 188 187 191 196 199 200 232 213 179 175 175 162 136 144 174 183 198 203 197 196 201 201 206 211 208 204 195 180 179 179 179
291 246 223 218 223 227 225 225 226 224 224 222 217 215 213 210 206 205 208 212 216 219 215 210 209 209 209 210 210 212 215 215 210 206 209 215 214 213 213 211 208 205 202 202 203 202 200 199 198 198 199 200 204 204 197 195 197 196 197 205 209 173 172 178 173 161 139 143 158 175 179 182 193 199 204 207 213 217 213 208 200 191 189 191 192
4 5 4 332 273 271 269 251 242 236 232 229 225 222 219 215 211 208 210 214 220 224 219 212 209 208 206 206 207 208 213 217 214 212 214 217 218 217 214 210 207 205 203 202 202 202 201 201 201 201 203 204 205 208 206 204 203 198 197 202 188 166 167 167 169 165 151 148 150 168 173 172 178 186 199 207 208 212 213 208 201 198 197 200 202
1 11 12 348 333 339 344 326 285 268 254 241 232 227 225 221 215 212 212 217 225 229 225 218 212 207 203 203 208 210 213 216 215 215 216 217 219 220 216 211 207 204 202 202 202 203 203 204 205 204 205 208 208 208 209 209 205 199 199 206 199 187 184 183 179 174 163 154 143 150 174 176 174 174 187 202 202 205 212 208 203 205 202 201 201